Regional Weather Roundup
Issued by NWS

Home | Current Version | Previous Version | Text Only | Print | Product List | Glossary Off
Versions: 1 2 3 4 5 6 7 8 9 10 11 12 13 14 15 16 17 18 19 20 21 22 23 24 25 26 27 28 29 30 31 32 33 34 35 36 37 38 39 40 41 42 43 44 45 46 47 48 49 50

000
ASUS43 KIND 020659
RWRIN

WEATHER ROUNDUP FOR INDIANA
NATIONAL WEATHER SERVICE INDIANAPOLIS IN
300 AM EDT THU APR 02 2015

NOTE: "FAIR" INDICATES FEW OR NO CLOUDS BELOW 12,000 FEET WITH NO
SIGNIFICANT WEATHER AND/OR OBSTRUCTIONS TO VISIBILITY.

* - STATION DOES NOT REPORT WEATHER SUCH AS PRECIPITATION OR FOG.

+ - STATION NOT QUALITY CONTROLLED BY THE NATIONAL WEATHER SERVICE.
    USE DATA WITH CAUTION...ESPECIALLY DEWPOINT AND RELATIVE
    HUMIDITY OBSERVATIONS.

INZ001>003-010>013-019-020-020800-
NORTHWEST INDIANA

CITY           SKY/WX    TMP DP  RH WIND       PRES   REMARKS

$$

LMZ046-743>745-020800-
SOUTHERN LAKE MICHIGAN

STATION/POSITION TIME  TEMP WIND        PRES
                       AIR  DIR/SP/G
                 (UTC) (F)  (DEG/KT/KT) (MB)
BURNS HARBOR     0600   58  180/ 13/ 21 1010.2F
MICHIGAN CITY    0600   58  150/ 17/ 22   N/A

$$

INZ004-005-014>016-021>024-020800-
NORTH CENTRAL INDIANA

CITY           SKY/WX    TMP DP  RH WIND       PRES   REMARKS
GOSHEN         MOCLDY    53  32  44 S13       29.87F
SOUTH BEND     MOCLDY    56  32  40 S10       29.87F

$$

INZ006>009-017-018-025>027-020800-
NORTHEAST INDIANA

CITY           SKY/WX    TMP DP  RH WIND       PRES   REMARKS
ANGOLA *+      CLEAR     50  34  53 S6        29.91F
FORT WAYNE     PTCLDY    46  33  60 SE9       29.91F

$$

INZ028-029-035-036-043>045-051>053-020800-
WEST CENTRAL INDIANA

CITY           SKY/WX    TMP DP  RH WIND       PRES   REMARKS
CRAWFORDSVL +  CLEAR     48  28  46 SE12      29.87F
GREENCASTLE +  CLEAR     52  28  40 SE9       29.89F
LAFAYETTE      PTCLDY    54  32  43 S10       29.86F
TERRE HAUTE    PTCLDY    54  34  46 S9        29.88F

$$

INZ030>032-037>040-046>048-054>057-064-065-020800-
CENTRAL INDIANA

CITY           SKY/WX    TMP DP  RH WIND       PRES   REMARKS
GREENWOOD *+   CLEAR     50  27  40 SE9       29.92F
INDIANAPOLIS   PTCLDY    52  30  43 SE14      29.89F
-EAGLE CREEK   CLEAR     53  29  39 SE8       29.90F
KOKOMO *+      CLEAR     48  34  57 S15       29.89F
MT COMFORT *+  CLEAR     52  18  25 S9        29.93F
SHELBYVILLE    CLEAR     53  31  42 SE13      29.92F

$$

INZ033-034-041-042-049-050-058-059-020800-
EAST CENTRAL INDIANA

CITY           SKY/WX    TMP DP  RH WIND       PRES   REMARKS
MUNCIE         CLEAR     55  27  34 S13       29.92F

$$

INZ060-061-067>069-081>083-085>088-020800-
SOUTHWEST INDIANA

CITY           SKY/WX    TMP DP  RH WIND       PRES   REMARKS
EVANSVILLE     CLOUDY    61  34  36 SE3       29.90F
HUNTINGBURG *+ CLOUDY    59  30  33 S9        29.92S

$$

INZ062-063-066-070>080-084-089>092-020800-
SOUTH CENTRAL AND SOUTHEAST INDIANA

CITY           SKY/WX    TMP DP  RH WIND       PRES   REMARKS
BLOOMINGTON    PTCLDY    55  29  36 SE8       29.90F
MADISON *+     PTCLDY    54  19  26 SE9       29.96F
SEYMOUR +      PTCLDY    54  32  43 SE3       29.92F

$$




USA.gov is the U.S. government's official web portal to all federal, state and local government web resources and services.